This demonstration page uses our WeatherBlox Daily Observations layout. Learn more.

Left ArrowRight Arrow

47.50024, -111.30081

Hourly Observations for January 17, 2018

Temp ( °F °C ) Dew Point ( °F °C ) Humidity (%) Winds ( mph kmh ) Pressure ( in mb ) Visibility ( mi km ) Precip ( " mm )
12:53 am 00:53 Clear 34 1.1 23 -5 64 64 SSW 15 24 30.29 1026 10 16 0.00 0.00
1:53 am 01:53 Clear 34 1.1 23 -5 64 64 SW 16 26 30.28 1025 10 16 0.00 0.00
2:53 am 02:53 Clear 34 1.1 22 -5.6 61 61 SW 15 24 30.31 1026 10 16 0.00 0.00
3:53 am 03:53 Clear 31 -0.6 21 -6.1 67 67 SSW 12 19 30.31 1027 10 16 0.00 0.00
4:53 am 04:53 Clear 32 0 21 -6.1 64 64 S 8 13 30.32 1027 10 16 0.00 0.00
5:53 am 05:53 Clear 34 1.1 22 -5.6 61 61 SSW 14 22 30.29 1026 10 16 0.00 0.00
6:53 am 06:53 Clear 35 1.7 22 -5.6 59 59 SSW 18 30 30.27 1025 10 16 0.00 0.00
7:53 am 07:53 Clear 34 1.1 22 -5.6 61 61 SSW 16 26 30.28 1025 10 16 0.00 0.00
8:53 am 08:53 Sunny 35 1.7 22 -5.6 59 59 S 14 22 30.28 1025 10 16 0.00 0.00
9:53 am 09:53 Sunny 37 2.8 23 -5 57 57 SSW 18 30 30.28 1026 10 16 0.00 0.00
10:53 am 10:53 Sunny 38 3.3 24 -4.4 57 57 SSW 17 28 30.27 1025 10 16 0.00 0.00
11:53 am 11:53 Sunny 41 5 24 -4.4 51 51 SSW 16 26 30.22 1023 10 16 0.00 0.00
12:53 pm 12:53 Sunny 41 5 24 -4.4 51 51 SSW 16 26 30.16 1021 10 16 0.00 0.00
1:53 pm 13:53 Sunny 39 3.9 24 -4.4 55 55 SSW 18 30 30.14 1021 10 16 0.00 0.00
2:53 pm 14:53 Sunny 40 4.4 24 -4.4 53 53 SW 21 33 30.11 1020 10 16 0.00 0.00
3:53 pm 15:53 Sunny 42 5.6 22 -5.6 45 45 SSW 21 33 30.11 1020 10 16 0.00 0.00
4:53 pm 16:53 Sunny 41 5 23 -5 49 49 SW 24 39 30.08 1019 10 16 0.00 0.00
5:53 pm 17:53 Clear 40 4.4 23 -5 51 51 SSW 17 28 30.08 1019 10 16 0.00 0.00
6:53 pm 18:53 Clear 40 4.4 23 -5 51 51 SSW 18 30 30.06 1018 10 16 0.00 0.00
7:53 pm 19:53 Clear 40 4.4 22 -5.6 49 49 SW 23 37 30.06 1018 10 16 0.00 0.00
8:53 pm 20:53 Clear 43 6.1 21 -6.1 42 42 SSW 21 33 30.01 1016 10 16 0.00 0.00
9:53 pm 21:53 Clear 45 7.2 23 -5 42 42 SSW 20 31 29.99 1016 10 16 0.00 0.00
10:53 pm 22:53 Clear 41 5 24 -4.4 51 51 SW 17 28 29.99 1016 10 16 0.00 0.00
11:53 pm 23:53 Clear 40 4.4 25 -3.9 55 55 SSW 17 28 29.98 1015 10 16 0.00 0.00

Powered by AerisWeather